2019,04,14,00,00,00,363.1,,,,,,,,,,,,,,
2019,04,14,00,01,00,,,,,,,,,,,,,,,
2019,04,14,00,02,00,336.2,,,,,,,,,,,,,,
2019,04,14,00,03,00,339.2,,,,,,,,,,,,,,
2019,04,14,00,04,00,335.1,,,,,,,,,,,,,,
2019,04,14,00,05,00,334.7,,,,,,,,,,,,,,
2019,04,14,00,06,00,329.0,,,,,,,,,,,,,,
2019,04,14,00,07,00,298.4,,,,,,,,,,,,,,
2019,04,14,00,08,00,301.5,,,,,,,,,,,,,,
2019,04,14,00,09,00,318.2,,,,,,,,,,,,,,
2019,04,14,00,10,00,307.0,,,,,,,,,,,,,,
2019,04,14,00,11,00,292.6,,,,,,,,,,,,,,
2019,04,14,00,12,00,290.5,,,,,,,,,,,,,,
2019,04,14,00,13,00,297.4,,,,,,,,,,,,,,
2019,04,14,00,14,00,273.2,,,,,,,,,,,,,,
2019,04,14,00,15,00,253.1,,,,,,,,,,,,,,
2019,04,14,00,16,00,254.2,,,,,,,,,,,,,,
2019,04,14,00,17,00,278.0,,,,,,,,,,,,,,
2019,04,14,00,18,00,298.9,,,,,,,,,,,,,,
2019,04,14,00,19,00,331.3,,,,,,,,,,,,,,
2019,04,14,00,20,00,356.3,,,,,,,,,,,,,,
2019,04,14,00,21,00,398.8,,,,,,,,,,,,,,
2019,04,14,00,22,00,399.1,,,,,,,,,,,,,,
2019,04,14,00,23,00,361.2,,,,,,,,,,,,,,
2019,04,14,00,24,00,315.5,,,,,,,,,,,,,,
2019,04,14,00,25,00,282.1,,,,,,,,,,,,,,
2019,04,14,00,26,00,253.0,,,,,,,,,,,,,,
2019,04,14,00,27,00,242.6,,,,,,,,,,,,,,
2019,04,14,00,28,00,245.5,,,,,,,,,,,,,,
2019,04,14,00,29,00,251.1,,,,,,,,,,,,,,
2019,04,14,00,30,00,253.3,,,,,,,,,,,,,,
2019,04,14,00,31,00,253.1,,,,,,,,,,,,,,
2019,04,14,00,32,00,252.5,,,,,,,,,,,,,,
2019,04,14,00,33,00,251.3,,,,,,,,,,,,,,
2019,04,14,00,34,00,248.1,,,,,,,,,,,,,,
2019,04,14,00,35,00,241.5,,,,,,,,,,,,,,
2019,04,14,00,36,00,246.0,,,,,,,,,,,,,,
2019,04,14,00,37,00,245.6,,,,,,,,,,,,,,
2019,04,14,00,38,00,252.0,,,,,,,,,,,,,,
2019,04,14,00,39,00,283.6,,,,,,,,,,,,,,
2019,04,14,00,40,00,308.2,,,,,,,,,,,,,,
2019,04,14,00,41,00,320.9,,,,,,,,,,,,,,
2019,04,14,00,42,00,328.8,,,,,,,,,,,,,,
2019,04,14,00,43,00,331.3,,,,,,,,,,,,,,
2019,04,14,00,44,00,328.8,,,,,,,,,,,,,,
2019,04,14,00,45,00,342.2,,,,,,,,,,,,,,
2019,04,14,00,46,00,341.1,,,,,,,,,,,,,,
2019,04,14,00,47,00,336.8,,,,,,,,,,,,,,
2019,04,14,00,48,00,335.8,,,,,,,,,,,,,,
2019,04,14,00,49,00,344.0,,,,,,,,,,,,,,
2019,04,14,00,50,00,366.8,,,,,,,,,,,,,,
2019,04,14,00,51,00,376.0,,,,,,,,,,,,,,
2019,04,14,00,52,00,382.1,,,,,,,,,,,,,,
2019,04,14,00,53,00,410.2,,,,,,,,,,,,,,
2019,04,14,00,54,00,428.2,,,,,,,,,,,,,,
2019,04,14,00,55,00,454.4,,,,,,,,,,,,,,
2019,04,14,00,56,00,457.8,,,,,,,,,,,,,,
2019,04,14,00,57,00,436.3,,,,,,,,,,,,,,
2019,04,14,00,58,00,395.5,,,,,,,,,,,,,,
2019,04,14,00,59,00,404.6,,,,,,,,,,,,,,
2019,04,14,01,00,00,431.0,,,,,,,,,,,,,,
2019,04,14,01,01,00,415.6,,,,,,,,,,,,,,
2019,04,14,01,02,00,374.3,,,,,,,,,,,,,,
2019,04,14,01,03,00,363.8,,,,,,,,,,,,,,
2019,04,14,01,04,00,340.1,,,,,,,,,,,,,,
2019,04,14,01,05,00,345.1,,,,,,,,,,,,,,
2019,04,14,01,06,00,338.7,,,,,,,,,,,,,,
2019,04,14,01,07,00,306.1,,,,,,,,,,,,,,
2019,04,14,01,08,00,261.1,,,,,,,,,,,,,,
2019,04,14,01,09,00,252.2,,,,,,,,,,,,,,
2019,04,14,01,10,00,241.9,,,,,,,,,,,,,,
2019,04,14,01,11,00,223.2,,,,,,,,,,,,,,
2019,04,14,01,12,00,213.0,,,,,,,,,,,,,,
2019,04,14,01,13,00,236.2,,,,,,,,,,,,,,
2019,04,14,01,14,00,252.9,,,,,,,,,,,,,,
2019,04,14,01,15,00,252.3,,,,,,,,,,,,,,
2019,04,14,01,16,00,252.4,,,,,,,,,,,,,,
2019,04,14,01,17,00,252.8,,,,,,,,,,,,,,
2019,04,14,01,18,00,262.6,,,,,,,,,,,,,,
2019,04,14,01,19,00,271.5,,,,,,,,,,,,,,
2019,04,14,01,20,00,277.2,,,,,,,,,,,,,,
2019,04,14,01,21,00,282.6,,,,,,,,,,,,,,
2019,04,14,01,22,00,279.3,,,,,,,,,,,,,,
2019,04,14,01,23,00,282.5,,,,,,,,,,,,,,
2019,04,14,01,24,00,294.4,,,,,,,,,,,,,,
2019,04,14,01,25,00,309.4,,,,,,,,,,,,,,
2019,04,14,01,26,00,320.4,,,,,,,,,,,,,,
2019,04,14,01,27,00,339.3,,,,,,,,,,,,,,
2019,04,14,01,28,00,338.7,,,,,,,,,,,,,,
2019,04,14,01,29,00,337.7,,,,,,,,,,,,,,
2019,04,14,01,30,00,342.6,,,,,,,,,,,,,,
2019,04,14,01,31,00,377.8,,,,,,,,,,,,,,
2019,04,14,01,32,00,426.8,,,,,,,,,,,,,,
2019,04,14,01,33,00,405.4,,,,,,,,,,,,,,
2019,04,14,01,34,00,393.5,,,,,,,,,,,,,,
2019,04,14,01,35,00,374.3,,,,,,,,,,,,,,
2019,04,14,01,36,00,379.0,,,,,,,,,,,,,,
2019,04,14,01,37,00,372.7,,,,,,,,,,,,,,
2019,04,14,01,38,00,357.7,,,,,,,,,,,,,,
2019,04,14,01,39,00,357.4,,,,,,,,,,,,,,
2019,04,14,01,40,00,329.5,,,,,,,,,,,,,,
2019,04,14,01,41,00,345.5,,,,,,,,,,,,,,
2019,04,14,01,42,00,325.1,,,,,,,,,,,,,,
2019,04,14,01,43,00,295.8,,,,,,,,,,,,,,
2019,04,14,01,44,00,296.1,,,,,,,,,,,,,,
2019,04,14,01,45,00,267.6,,,,,,,,,,,,,,
2019,04,14,01,46,00,262.0,,,,,,,,,,,,,,
2019,04,14,01,47,00,275.5,,,,,,,,,,,,,,
2019,04,14,01,48,00,268.7,,,,,,,,,,,,,,
2019,04,14,01,49,00,240.9,,,,,,,,,,,,,,
2019,04,14,01,50,00,248.3,,,,,,,,,,,,,,
2019,04,14,01,51,00,235.1,,,,,,,,,,,,,,
2019,04,14,01,52,00,222.9,,,,,,,,,,,,,,
2019,04,14,01,53,00,213.8,,,,,,,,,,,,,,
2019,04,14,01,54,00,208.3,,,,,,,,,,,,,,
2019,04,14,01,55,00,242.4,,,,,,,,,,,,,,
2019,04,14,01,56,00,251.2,,,,,,,,,,,,,,
2019,04,14,01,57,00,240.1,,,,,,,,,,,,,,
2019,04,14,01,58,00,226.4,,,,,,,,,,,,,,
2019,04,14,01,59,00,233.9,,,,,,,,,,,,,,
2019,04,14,02,00,00,224.3,,,,,,,,,,,,,,
2019,04,14,02,01,00,215.4,,,,,,,,,,,,,,
2019,04,14,02,02,00,223.7,,,,,,,,,,,,,,
2019,04,14,02,03,00,222.5,,,,,,,,,,,,,,
2019,04,14,02,04,00,225.9,,,,,,,,,,,,,,
2019,04,14,02,05,00,238.7,,,,,,,,,,,,,,
2019,04,14,02,06,00,231.5,,,,,,,,,,,,,,
2019,04,14,02,07,00,250.8,,,,,,,,,,,,,,
2019,04,14,02,08,00,257.6,,,,,,,,,,,,,,
2019,04,14,02,09,00,264.9,,,,,,,,,,,,,,
2019,04,14,02,10,00,256.3,,,,,,,,,,,,,,
2019,04,14,02,11,00,225.5,,,,,,,,,,,,,,
2019,04,14,02,12,00,205.4,,,,,,,,,,,,,,
2019,04,14,02,13,00,220.7,,,,,,,,,,,,,,
2019,04,14,02,14,00,235.1,,,,,,,,,,,,,,
2019,04,14,02,15,00,240.4,,,,,,,,,,,,,,
2019,04,14,02,16,00,221.8,,,,,,,,,,,,,,
2019,04,14,02,17,00,230.4,,,,,,,,,,,,,,
2019,04,14,02,18,00,229.5,,,,,,,,,,,,,,
2019,04,14,02,19,00,229.7,,,,,,,,,,,,,,
2019,04,14,02,20,00,218.1,,,,,,,,,,,,,,
2019,04,14,02,21,00,208.5,,,,,,,,,,,,,,
2019,04,14,02,22,00,189.6,,,,,,,,,,,,,,
2019,04,14,02,23,00,186.8,,,,,,,,,,,,,,
2019,04,14,02,24,00,170.9,,,,,,,,,,,,,,
2019,04,14,02,25,00,185.7,,,,,,,,,,,,,,
2019,04,14,02,26,00,174.1,,,,,,,,,,,,,,
2019,04,14,02,27,00,179.4,,,,,,,,,,,,,,
2019,04,14,02,28,00,192.2,,,,,,,,,,,,,,
2019,04,14,02,29,00,200.9,,,,,,,,,,,,,,
2019,04,14,02,30,00,197.1,,,,,,,,,,,,,,
2019,04,14,02,31,00,191.3,,,,,,,,,,,,,,
2019,04,14,02,32,00,185.8,,,,,,,,,,,,,,
2019,04,14,02,33,00,186.3,,,,,,,,,,,,,,
2019,04,14,02,34,00,174.7,,,,,,,,,,,,,,
2019,04,14,02,35,00,190.4,,,,,,,,,,,,,,
2019,04,14,02,36,00,181.2,,,,,,,,,,,,,,
2019,04,14,02,37,00,180.4,,,,,,,,,,,,,,
2019,04,14,02,38,00,176.1,,,,,,,,,,,,,,
2019,04,14,02,39,00,180.1,,,,,,,,,,,,,,
2019,04,14,02,40,00,195.4,,,,,,,,,,,,,,
2019,04,14,02,41,00,205.2,,,,,,,,,,,,,,
2019,04,14,02,42,00,192.4,,,,,,,,,,,,,,
2019,04,14,02,43,00,185.0,,,,,,,,,,,,,,
2019,04,14,02,44,00,189.8,,,,,,,,,,,,,,
2019,04,14,02,45,00,200.4,,,,,,,,,,,,,,
2019,04,14,02,46,00,209.2,,,,,,,,,,,,,,
2019,04,14,02,47,00,229.6,,,,,,,,,,,,,,
2019,04,14,02,48,00,200.2,,,,,,,,,,,,,,
2019,04,14,02,49,00,206.5,,,,,,,,,,,,,,
2019,04,14,02,50,00,206.7,,,,,,,,,,,,,,
2019,04,14,02,51,00,206.1,,,,,,,,,,,,,,
2019,04,14,02,52,00,209.0,,,,,,,,,,,,,,
2019,04,14,02,53,00,217.9,,,,,,,,,,,,,,
2019,04,14,02,54,00,237.0,,,,,,,,,,,,,,
2019,04,14,02,55,00,214.7,,,,,,,,,,,,,,
2019,04,14,02,56,00,210.6,,,,,,,,,,,,,,
2019,04,14,02,57,00,211.2,,,,,,,,,,,,,,
2019,04,14,02,58,00,218.3,,,,,,,,,,,,,,
2019,04,14,02,59,00,209.9,,,,,,,,,,,,,,
2019,04,14,03,00,00,205.6,,,,,,,,,,,,,,
2019,04,14,03,01,00,228.8,,,,,,,,,,,,,,
2019,04,14,03,02,00,216.0,,,,,,,,,,,,,,
2019,04,14,03,03,00,229.0,,,,,,,,,,,,,,
2019,04,14,03,04,00,220.1,,,,,,,,,,,,,,
2019,04,14,03,05,00,212.5,,,,,,,,,,,,,,
2019,04,14,03,06,00,213.8,,,,,,,,,,,,,,
2019,04,14,03,07,00,242.0,,,,,,,,,,,,,,
2019,04,14,03,08,00,240.8,,,,,,,,,,,,,,
2019,04,14,03,09,00,228.1,,,,,,,,,,,,,,
2019,04,14,03,10,00,245.9,,,,,,,,,,,,,,
2019,04,14,03,11,00,231.9,,,,,,,,,,,,,,
2019,04,14,03,12,00,230.9,,,,,,,,,,,,,,
2019,04,14,03,13,00,227.1,,,,,,,,,,,,,,
2019,04,14,03,14,00,225.4,,,,,,,,,,,,,,
2019,04,14,03,15,00,229.2,,,,,,,,,,,,,,
2019,04,14,03,16,00,223.7,,,,,,,,,,,,,,
2019,04,14,03,17,00,207.5,,,,,,,,,,,,,,
2019,04,14,03,18,00,205.0,,,,,,,,,,,,,,
2019,04,14,03,19,00,214.6,,,,,,,,,,,,,,
2019,04,14,03,20,00,224.4,,,,,,,,,,,,,,
2019,04,14,03,21,00,224.3,,,,,,,,,,,,,,
2019,04,14,03,22,00,255.0,,,,,,,,,,,,,,
2019,04,14,03,23,00,256.4,,,,,,,,,,,,,,
2019,04,14,03,24,00,241.7,,,,,,,,,,,,,,
2019,04,14,03,25,00,250.5,,,,,,,,,,,,,,
2019,04,14,03,26,00,237.7,,,,,,,,,,,,,,
2019,04,14,03,27,00,227.6,,,,,,,,,,,,,,
2019,04,14,03,28,00,227.3,,,,,,,,,,,,,,
2019,04,14,03,29,00,235.7,,,,,,,,,,,,,,
2019,04,14,03,30,00,242.0,,,,,,,,,,,,,,
2019,04,14,03,31,00,250.3,,,,,,,,,,,,,,
2019,04,14,03,32,00,250.1,,,,,,,,,,,,,,
2019,04,14,03,33,00,229.1,,,,,,,,,,,,,,
2019,04,14,03,34,00,218.7,,,,,,,,,,,,,,
2019,04,14,03,35,00,222.7,,,,,,,,,,,,,,
2019,04,14,03,36,00,227.0,,,,,,,,,,,,,,
2019,04,14,03,37,00,246.7,,,,,,,,,,,,,,
2019,04,14,03,38,00,247.1,,,,,,,,,,,,,,
2019,04,14,03,39,00,248.4,,,,,,,,,,,,,,
2019,04,14,03,40,00,277.8,,,,,,,,,,,,,,
2019,04,14,03,41,00,268.0,,,,,,,,,,,,,,
2019,04,14,03,42,00,249.8,,,,,,,,,,,,,,
2019,04,14,03,43,00,250.8,,,,,,,,,,,,,,
2019,04,14,03,44,00,256.2,,,,,,,,,,,,,,
2019,04,14,03,45,00,249.1,,,,,,,,,,,,,,
2019,04,14,03,46,00,238.9,,,,,,,,,,,,,,
2019,04,14,03,47,00,235.2,,,,,,,,,,,,,,
2019,04,14,03,48,00,242.4,,,,,,,,,,,,,,
2019,04,14,03,49,00,251.7,,,,,,,,,,,,,,
2019,04,14,03,50,00,257.6,,,,,,,,,,,,,,
2019,04,14,03,51,00,254.5,,,,,,,,,,,,,,
2019,04,14,03,52,00,259.2,,,,,,,,,,,,,,
2019,04,14,03,53,00,271.1,,,,,,,,,,,,,,
2019,04,14,03,54,00,,,,,,,,,,,,,,,
2019,04,14,03,55,00,,,,,,,,,,,,,,,
2019,04,14,03,56,00,297.2,,,,,,,,,,,,,,
2019,04,14,03,57,00,289.6,,,,,,,,,,,,,,
2019,04,14,03,58,00,313.5,,,,,,,,,,,,,,
2019,04,14,03,59,00,312.2,,,,,,,,,,,,,,
2019,04,14,04,00,00,280.6,,,,,,,,,,,,,,
2019,04,14,04,01,00,289.8,,,,,,,,,,,,,,
2019,04,14,04,02,00,274.4,,,,,,,,,,,,,,
2019,04,14,04,03,00,249.2,,,,,,,,,,,,,,
2019,04,14,04,04,00,265.2,,,,,,,,,,,,,,
2019,04,14,04,05,00,281.4,,,,,,,,,,,,,,
2019,04,14,04,06,00,274.7,,,,,,,,,,,,,,
2019,04,14,04,07,00,277.3,,,,,,,,,,,,,,
2019,04,14,04,08,00,319.9,,,,,,,,,,,,,,
2019,04,14,04,09,00,290.4,,,,,,,,,,,,,,
2019,04,14,04,10,00,258.8,,,,,,,,,,,,,,
2019,04,14,04,11,00,249.1,,,,,,,,,,,,,,
2019,04,14,04,12,00,248.5,,,,,,,,,,,,,,
2019,04,14,04,13,00,252.3,,,,,,,,,,,,,,
2019,04,14,04,14,00,270.6,,,,,,,,,,,,,,
2019,04,14,04,15,00,259.2,,,,,,,,,,,,,,
2019,04,14,04,16,00,253.3,,,,,,,,,,,,,,
2019,04,14,04,17,00,270.2,,,,,,,,,,,,,,
2019,04,14,04,18,00,268.8,,,,,,,,,,,,,,
2019,04,14,04,19,00,257.4,,,,,,,,,,,,,,
2019,04,14,04,20,00,263.8,,,,,,,,,,,,,,
2019,04,14,04,21,00,250.1,,,,,,,,,,,,,,
2019,04,14,04,22,00,246.2,,,,,,,,,,,,,,
2019,04,14,04,23,00,239.6,,,,,,,,,,,,,,
2019,04,14,04,24,00,246.3,,,,,,,,,,,,,,
2019,04,14,04,25,00,240.4,,,,,,,,,,,,,,
2019,04,14,04,26,00,237.6,,,,,,,,,,,,,,
2019,04,14,04,27,00,241.6,,,,,,,,,,,,,,
2019,04,14,04,28,00,245.2,,,,,,,,,,,,,,
2019,04,14,04,29,00,235.0,,,,,,,,,,,,,,
2019,04,14,04,30,00,218.7,,,,,,,,,,,,,,
2019,04,14,04,31,00,220.5,,,,,,,,,,,,,,
2019,04,14,04,32,00,225.9,,,,,,,,,,,,,,
2019,04,14,04,33,00,251.4,,,,,,,,,,,,,,
2019,04,14,04,34,00,238.1,,,,,,,,,,,,,,
2019,04,14,04,35,00,227.0,,,,,,,,,,,,,,
2019,04,14,04,36,00,219.9,,,,,,,,,,,,,,
2019,04,14,04,37,00,215.4,,,,,,,,,,,,,,
2019,04,14,04,38,00,214.0,,,,,,,,,,,,,,
2019,04,14,04,39,00,214.3,,,,,,,,,,,,,,
2019,04,14,04,40,00,209.8,,,,,,,,,,,,,,
2019,04,14,04,41,00,204.8,,,,,,,,,,,,,,
2019,04,14,04,42,00,204.9,,,,,,,,,,,,,,
2019,04,14,04,43,00,204.8,,,,,,,,,,,,,,
2019,04,14,04,44,00,207.9,,,,,,,,,,,,,,
2019,04,14,04,45,00,211.2,,,,,,,,,,,,,,
2019,04,14,04,46,00,212.6,,,,,,,,,,,,,,
2019,04,14,04,47,00,211.4,,,,,,,,,,,,,,
2019,04,14,04,48,00,211.6,,,,,,,,,,,,,,
2019,04,14,04,49,00,215.4,,,,,,,,,,,,,,
2019,04,14,04,50,00,221.7,,,,,,,,,,,,,,
2019,04,14,04,51,00,234.6,,,,,,,,,,,,,,
2019,04,14,04,52,00,251.7,,,,,,,,,,,,,,
2019,04,14,04,53,00,263.9,,,,,,,,,,,,,,
2019,04,14,04,54,00,224.3,,,,,,,,,,,,,,
2019,04,14,04,55,00,221.7,,,,,,,,,,,,,,
2019,04,14,04,56,00,218.1,,,,,,,,,,,,,,
2019,04,14,04,57,00,220.9,,,,,,,,,,,,,,
2019,04,14,04,58,00,213.2,,,,,,,,,,,,,,
2019,04,14,04,59,00,224.2,,,,,,,,,,,,,,
2019,04,14,05,00,00,234.0,,,,,,,,,,,,,,
2019,04,14,05,01,00,213.2,,,,,,,,,,,,,,
2019,04,14,05,02,00,219.3,,,,,,,,,,,,,,
2019,04,14,05,03,00,214.0,,,,,,,,,,,,,,
2019,04,14,05,04,00,215.0,,,,,,,,,,,,,,
2019,04,14,05,05,00,207.8,,,,,,,,,,,,,,
2019,04,14,05,06,00,212.1,,,,,,,,,,,,,,
2019,04,14,05,07,00,196.1,,,,,,,,,,,,,,
2019,04,14,05,08,00,209.1,,,,,,,,,,,,,,
2019,04,14,05,09,00,203.7,,,,,,,,,,,,,,
2019,04,14,05,10,00,211.1,,,,,,,,,,,,,,
2019,04,14,05,11,00,200.9,,,,,,,,,,,,,,
2019,04,14,05,12,00,200.8,,,,,,,,,,,,,,
2019,04,14,05,13,00,207.4,,,,,,,,,,,,,,
2019,04,14,05,14,00,193.6,,,,,,,,,,,,,,
2019,04,14,05,15,00,183.8,,,,,,,,,,,,,,
2019,04,14,05,16,00,170.0,,,,,,,,,,,,,,
2019,04,14,05,17,00,183.9,,,,,,,,,,,,,,
2019,04,14,05,18,00,202.8,,,,,,,,,,,,,,
2019,04,14,05,19,00,210.1,,,,,,,,,,,,,,
2019,04,14,05,20,00,200.4,,,,,,,,,,,,,,
2019,04,14,05,21,00,208.8,,,,,,,,,,,,,,
2019,04,14,05,22,00,216.6,,,,,,,,,,,,,,
2019,04,14,05,23,00,217.2,,,,,,,,,,,,,,
2019,04,14,05,24,00,229.0,,,,,,,,,,,,,,
2019,04,14,05,25,00,229.8,,,,,,,,,,,,,,
2019,04,14,05,26,00,234.7,,,,,,,,,,,,,,
2019,04,14,05,27,00,215.1,,,,,,,,,,,,,,
2019,04,14,05,28,00,218.1,,,,,,,,,,,,,,
2019,04,14,05,29,00,201.0,,,,,,,,,,,,,,
2019,04,14,05,30,00,200.3,,,,,,,,,,,,,,
2019,04,14,05,31,00,205.4,,,,,,,,,,,,,,
2019,04,14,05,32,00,196.0,,,,,,,,,,,,,,
2019,04,14,05,33,00,190.7,,,,,,,,,,,,,,
2019,04,14,05,34,00,204.0,,,,,,,,,,,,,,
2019,04,14,05,35,00,223.4,,,,,,,,,,,,,,
2019,04,14,05,36,00,204.6,,,,,,,,,,,,,,
2019,04,14,05,37,00,191.0,,,,,,,,,,,,,,
2019,04,14,05,38,00,178.9,,,,,,,,,,,,,,
2019,04,14,05,39,00,182.1,,,,,,,,,,,,,,
2019,04,14,05,40,00,198.1,,,,,,,,,,,,,,
2019,04,14,05,41,00,195.7,,,,,,,,,,,,,,
2019,04,14,05,42,00,189.9,,,,,,,,,,,,,,
2019,04,14,05,43,00,164.9,,,,,,,,,,,,,,
2019,04,14,05,44,00,160.3,,,,,,,,,,,,,,
2019,04,14,05,45,00,183.2,,,,,,,,,,,,,,
2019,04,14,05,46,00,199.4,,,,,,,,,,,,,,
2019,04,14,05,47,00,204.0,,,,,,,,,,,,,,
2019,04,14,05,48,00,197.9,,,,,,,,,,,,,,
2019,04,14,05,49,00,215.2,,,,,,,,,,,,,,
2019,04,14,05,50,00,244.6,,,,,,,,,,,,,,
2019,04,14,05,51,00,241.7,,,,,,,,,,,,,,
2019,04,14,05,52,00,225.5,,,,,,,,,,,,,,
2019,04,14,05,53,00,234.3,,,,,,,,,,,,,,
2019,04,14,05,54,00,222.6,,,,,,,,,,,,,,
2019,04,14,05,55,00,196.9,,,,,,,,,,,,,,
2019,04,14,05,56,00,177.7,,,,,,,,,,,,,,
2019,04,14,05,57,00,183.2,,,,,,,,,,,,,,
2019,04,14,05,58,00,204.4,,,,,,,,,,,,,,
2019,04,14,05,59,00,164.1,,,,,,,,,,,,,,
2019,04,14,06,00,00,172.9,,,,,,,,,,,,,,
2019,04,14,06,01,00,163.6,,,,,,,,,,,,,,
2019,04,14,06,02,00,138.3,,,,,,,,,,,,,,
2019,04,14,06,03,00,158.0,,,,,,,,,,,,,,
2019,04,14,06,04,00,166.5,,,,,,,,,,,,,,
2019,04,14,06,05,00,109.3,,,,,,,,,,,,,,
2019,04,14,06,06,00,165.3,,,,,,,,,,,,,,
2019,04,14,06,07,00,180.9,,,,,,,,,,,,,,
2019,04,14,06,08,00,169.5,,,,,,,,,,,,,,
2019,04,14,06,09,00,168.5,,,,,,,,,,,,,,
2019,04,14,06,10,00,173.4,,,,,,,,,,,,,,
2019,04,14,06,11,00,174.3,,,,,,,,,,,,,,
2019,04,14,06,12,00,163.0,,,,,,,,,,,,,,
2019,04,14,06,13,00,155.6,,,,,,,,,,,,,,
2019,04,14,06,14,00,118.5,,,,,,,,,,,,,,
2019,04,14,06,15,00,88.6,,,,,,,,,,,,,,
2019,04,14,06,16,00,115.5,,,,,,,,,,,,,,
2019,04,14,06,17,00,117.4,,,,,,,,,,,,,,
2019,04,14,06,18,00,124.8,,,,,,,,,,,,,,
2019,04,14,06,19,00,143.1,,,,,,,,,,,,,,
2019,04,14,06,20,00,128.0,,,,,,,,,,,,,,
2019,04,14,06,21,00,118.2,,,,,,,,,,,,,,
2019,04,14,06,22,00,96.0,,,,,,,,,,,,,,
2019,04,14,06,23,00,139.5,,,,,,,,,,,,,,
2019,04,14,06,24,00,124.2,,,,,,,,,,,,,,
2019,04,14,06,25,00,133.2,,,,,,,,,,,,,,
2019,04,14,06,26,00,132.2,,,,,,,,,,,,,,
2019,04,14,06,27,00,121.0,,,,,,,,,,,,,,
2019,04,14,06,28,00,126.3,,,,,,,,,,,,,,
2019,04,14,06,29,00,126.8,,,,,,,,,,,,,,
2019,04,14,06,30,00,124.8,,,,,,,,,,,,,,
2019,04,14,06,31,00,-26.2,,,,,,,,,,,,,,
2019,04,14,06,32,00,25.7,,,,,,,,,,,,,,
2019,04,14,06,33,00,-126.1,,,,,,,,,,,,,,
2019,04,14,06,34,00,-55.4,,,,,,,,,,,,,,
2019,04,14,06,35,00,74.6,,,,,,,,,,,,,,
2019,04,14,06,36,00,100.0,,,,,,,,,,,,,,
2019,04,14,06,37,00,92.5,,,,,,,,,,,,,,
2019,04,14,06,38,00,93.3,,,,,,,,,,,,,,
2019,04,14,06,39,00,78.8,,,,,,,,,,,,,,
2019,04,14,06,40,00,90.9,,,,,,,,,,,,,,
2019,04,14,06,41,00,65.3,,,,,,,,,,,,,,
2019,04,14,06,42,00,98.3,,,,,,,,,,,,,,
2019,04,14,06,43,00,110.6,,,,,,,,,,,,,,
2019,04,14,06,44,00,124.5,,,,,,,,,,,,,,
2019,04,14,06,45,00,109.9,,,,,,,,,,,,,,
2019,04,14,06,46,00,26.5,,,,,,,,,,,,,,
2019,04,14,06,47,00,46.6,,,,,,,,,,,,,,
2019,04,14,06,48,00,76.5,,,,,,,,,,,,,,
2019,04,14,06,49,00,118.6,,,,,,,,,,,,,,
2019,04,14,06,50,00,124.3,,,,,,,,,,,,,,
2019,04,14,06,51,00,120.9,,,,,,,,,,,,,,
2019,04,14,06,52,00,114.6,,,,,,,,,,,,,,
2019,04,14,06,53,00,111.4,,,,,,,,,,,,,,
2019,04,14,06,54,00,116.8,,,,,,,,,,,,,,
2019,04,14,06,55,00,112.7,,,,,,,,,,,,,,
2019,04,14,06,56,00,119.9,,,,,,,,,,,,,,
2019,04,14,06,57,00,109.2,,,,,,,,,,,,,,
2019,04,14,06,58,00,72.0,,,,,,,,,,,,,,
2019,04,14,06,59,00,-52.5,,,,,,,,,,,,,,
2019,04,14,07,00,00,95.9,,,,,,,,,,,,,,
2019,04,14,07,01,00,119.0,,,,,,,,,,,,,,
2019,04,14,07,02,00,85.6,,,,,,,,,,,,,,
2019,04,14,07,03,00,77.5,,,,,,,,,,,,,,
2019,04,14,07,04,00,-20.3,,,,,,,,,,,,,,
2019,04,14,07,05,00,78.2,,,,,,,,,,,,,,
2019,04,14,07,06,00,87.9,,,,,,,,,,,,,,
2019,04,14,07,07,00,78.8,,,,,,,,,,,,,,
2019,04,14,07,08,00,79.7,,,,,,,,,,,,,,
2019,04,14,07,09,00,77.1,,,,,,,,,,,,,,
2019,04,14,07,10,00,96.5,,,,,,,,,,,,,,
2019,04,14,07,11,00,104.2,,,,,,,,,,,,,,
2019,04,14,07,12,00,108.8,,,,,,,,,,,,,,
2019,04,14,07,13,00,78.7,,,,,,,,,,,,,,
2019,04,14,07,14,00,87.9,,,,,,,,,,,,,,
2019,04,14,07,15,00,10.5,,,,,,,,,,,,,,
2019,04,14,07,16,00,-67.0,,,,,,,,,,,,,,
2019,04,14,07,17,00,76.7,,,,,,,,,,,,,,
2019,04,14,07,18,00,111.6,,,,,,,,,,,,,,
2019,04,14,07,19,00,126.4,,,,,,,,,,,,,,
2019,04,14,07,20,00,86.6,,,,,,,,,,,,,,
2019,04,14,07,21,00,110.7,,,,,,,,,,,,,,
2019,04,14,07,22,00,110.0,,,,,,,,,,,,,,
2019,04,14,07,23,00,122.8,,,,,,,,,,,,,,
2019,04,14,07,24,00,94.7,,,,,,,,,,,,,,
2019,04,14,07,25,00,102.1,,,,,,,,,,,,,,
2019,04,14,07,26,00,-29.5,,,,,,,,,,,,,,
2019,04,14,07,27,00,59.6,,,,,,,,,,,,,,
2019,04,14,07,28,00,59.9,,,,,,,,,,,,,,
2019,04,14,07,29,00,99.3,,,,,,,,,,,,,,
2019,04,14,07,30,00,119.5,,,,,,,,,,,,,,
2019,04,14,07,31,00,127.0,,,,,,,,,,,,,,
2019,04,14,07,32,00,55.0,,,,,,,,,,,,,,
2019,04,14,07,33,00,67.5,,,,,,,,,,,,,,
2019,04,14,07,34,00,100.3,,,,,,,,,,,,,,
2019,04,14,07,35,00,-9.0,,,,,,,,,,,,,,
2019,04,14,07,36,00,30.5,,,,,,,,,,,,,,
2019,04,14,07,37,00,58.8,,,,,,,,,,,,,,
2019,04,14,07,38,00,54.2,,,,,,,,,,,,,,
2019,04,14,07,39,00,48.8,,,,,,,,,,,,,,
2019,04,14,07,40,00,80.7,,,,,,,,,,,,,,
2019,04,14,07,41,00,92.2,,,,,,,,,,,,,,
2019,04,14,07,42,00,81.0,,,,,,,,,,,,,,
2019,04,14,07,43,00,74.6,,,,,,,,,,,,,,
2019,04,14,07,44,00,71.4,,,,,,,,,,,,,,
2019,04,14,07,45,00,84.8,,,,,,,,,,,,,,
2019,04,14,07,46,00,97.1,,,,,,,,,,,,,,
2019,04,14,07,47,00,104.5,,,,,,,,,,,,,,
2019,04,14,07,48,00,109.8,,,,,,,,,,,,,,
2019,04,14,07,49,00,102.7,,,,,,,,,,,,,,
2019,04,14,07,50,00,99.7,,,,,,,,,,,,,,
2019,04,14,07,51,00,108.8,,,,,,,,,,,,,,
2019,04,14,07,52,00,108.9,,,,,,,,,,,,,,
2019,04,14,07,53,00,108.4,,,,,,,,,,,,,,
2019,04,14,07,54,00,91.7,,,,,,,,,,,,,,
2019,04,14,07,55,00,116.7,,,,,,,,,,,,,,
2019,04,14,07,56,00,117.7,,,,,,,,,,,,,,
2019,04,14,07,57,00,103.4,,,,,,,,,,,,,,
2019,04,14,07,58,00,118.2,,,,,,,,,,,,,,
2019,04,14,07,59,00,128.8,,,,,,,,,,,,,,
2019,04,14,08,00,00,137.1,,,,,,,,,,,,,,
2019,04,14,08,01,00,159.9,,,,,,,,,,,,,,
2019,04,14,08,02,00,180.1,,,,,,,,,,,,,,
2019,04,14,08,03,00,181.2,,,,,,,,,,,,,,
2019,04,14,08,04,00,165.9,,,,,,,,,,,,,,
2019,04,14,08,05,00,160.8,,,,,,,,,,,,,,
2019,04,14,08,06,00,152.7,,,,,,,,,,,,,,
2019,04,14,08,07,00,141.8,,,,,,,,,,,,,,
2019,04,14,08,08,00,156.4,,,,,,,,,,,,,,
2019,04,14,08,09,00,165.9,,,,,,,,,,,,,,
2019,04,14,08,10,00,157.8,,,,,,,,,,,,,,
2019,04,14,08,11,00,153.2,,,,,,,,,,,,,,
2019,04,14,08,12,00,151.1,,,,,,,,,,,,,,
2019,04,14,08,13,00,154.4,,,,,,,,,,,,,,
2019,04,14,08,14,00,163.5,,,,,,,,,,,,,,
2019,04,14,08,15,00,141.2,,,,,,,,,,,,,,
2019,04,14,08,16,00,130.9,,,,,,,,,,,,,,
2019,04,14,08,17,00,102.9,,,,,,,,,,,,,,
2019,04,14,08,18,00,98.4,,,,,,,,,,,,,,
2019,04,14,08,19,00,169.1,,,,,,,,,,,,,,
2019,04,14,08,20,00,188.6,,,,,,,,,,,,,,
2019,04,14,08,21,00,195.5,,,,,,,,,,,,,,
2019,04,14,08,22,00,205.9,,,,,,,,,,,,,,
2019,04,14,08,23,00,205.2,,,,,,,,,,,,,,
2019,04,14,08,24,00,184.5,,,,,,,,,,,,,,
2019,04,14,08,25,00,203.5,,,,,,,,,,,,,,
2019,04,14,08,26,00,212.5,,,,,,,,,,,,,,
2019,04,14,08,27,00,214.7,,,,,,,,,,,,,,
2019,04,14,08,28,00,199.8,,,,,,,,,,,,,,
2019,04,14,08,29,00,205.1,,,,,,,,,,,,,,
2019,04,14,08,30,00,205.5,,,,,,,,,,,,,,
2019,04,14,08,31,00,208.3,,,,,,,,,,,,,,
2019,04,14,08,32,00,194.7,,,,,,,,,,,,,,
2019,04,14,08,33,00,199.5,,,,,,,,,,,,,,
2019,04,14,08,34,00,142.4,,,,,,,,,,,,,,
2019,04,14,08,35,00,199.1,,,,,,,,,,,,,,
2019,04,14,08,36,00,193.6,,,,,,,,,,,,,,
2019,04,14,08,37,00,165.3,,,,,,,,,,,,,,
2019,04,14,08,38,00,193.7,,,,,,,,,,,,,,
2019,04,14,08,39,00,228.3,,,,,,,,,,,,,,
2019,04,14,08,40,00,245.4,,,,,,,,,,,,,,
2019,04,14,08,41,00,231.2,,,,,,,,,,,,,,
2019,04,14,08,42,00,237.7,,,,,,,,,,,,,,
2019,04,14,08,43,00,250.3,,,,,,,,,,,,,,
2019,04,14,08,44,00,233.7,,,,,,,,,,,,,,
2019,04,14,08,45,00,205.8,,,,,,,,,,,,,,
2019,04,14,08,46,00,201.6,,,,,,,,,,,,,,
2019,04,14,08,47,00,173.6,,,,,,,,,,,,,,
2019,04,14,08,48,00,165.1,,,,,,,,,,,,,,
2019,04,14,08,49,00,187.2,,,,,,,,,,,,,,
2019,04,14,08,50,00,212.6,,,,,,,,,,,,,,
2019,04,14,08,51,00,249.2,,,,,,,,,,,,,,
2019,04,14,08,52,00,264.3,,,,,,,,,,,,,,
2019,04,14,08,53,00,241.7,,,,,,,,,,,,,,
2019,04,14,08,54,00,234.9,,,,,,,,,,,,,,
2019,04,14,08,55,00,208.7,,,,,,,,,,,,,,
2019,04,14,08,56,00,221.6,,,,,,,,,,,,,,
2019,04,14,08,57,00,225.5,,,,,,,,,,,,,,
2019,04,14,08,58,00,247.4,,,,,,,,,,,,,,
2019,04,14,08,59,00,247.5,,,,,,,,,,,,,,
2019,04,14,09,00,00,249.4,,,,,,,,,,,,,,
2019,04,14,09,01,00,266.7,,,,,,,,,,,,,,
2019,04,14,09,02,00,250.9,,,,,,,,,,,,,,
2019,04,14,09,03,00,229.6,,,,,,,,,,,,,,
2019,04,14,09,04,00,224.8,,,,,,,,,,,,,,
2019,04,14,09,05,00,213.7,,,,,,,,,,,,,,
2019,04,14,09,06,00,219.9,,,,,,,,,,,,,,
2019,04,14,09,07,00,227.7,,,,,,,,,,,,,,
2019,04,14,09,08,00,198.0,,,,,,,,,,,,,,
2019,04,14,09,09,00,208.3,,,,,,,,,,,,,,
2019,04,14,09,10,00,196.2,,,,,,,,,,,,,,
2019,04,14,09,11,00,193.8,,,,,,,,,,,,,,
2019,04,14,09,12,00,185.0,,,,,,,,,,,,,,
2019,04,14,09,13,00,191.3,,,,,,,,,,,,,,
2019,04,14,09,14,00,211.5,,,,,,,,,,,,,,
2019,04,14,09,15,00,214.7,,,,,,,,,,,,,,
2019,04,14,09,16,00,183.6,,,,,,,,,,,,,,
2019,04,14,09,17,00,200.0,,,,,,,,,,,,,,
2019,04,14,09,18,00,198.9,,,,,,,,,,,,,,
2019,04,14,09,19,00,208.2,,,,,,,,,,,,,,
2019,04,14,09,20,00,204.3,,,,,,,,,,,,,,
2019,04,14,09,21,00,202.1,,,,,,,,,,,,,,
2019,04,14,09,22,00,204.5,,,,,,,,,,,,,,
2019,04,14,09,23,00,204.3,,,,,,,,,,,,,,
2019,04,14,09,24,00,210.1,,,,,,,,,,,,,,
2019,04,14,09,25,00,202.7,,,,,,,,,,,,,,
2019,04,14,09,26,00,199.9,,,,,,,,,,,,,,
2019,04,14,09,27,00,194.3,,,,,,,,,,,,,,
2019,04,14,09,28,00,198.2,,,,,,,,,,,,,,
2019,04,14,09,29,00,202.7,,,,,,,,,,,,,,
2019,04,14,09,30,00,204.1,,,,,,,,,,,,,,
2019,04,14,09,31,00,206.0,,,,,,,,,,,,,,
2019,04,14,09,32,00,205.1,,,,,,,,,,,,,,
2019,04,14,09,33,00,201.9,,,,,,,,,,,,,,
2019,04,14,09,34,00,192.4,,,,,,,,,,,,,,
2019,04,14,09,35,00,207.1,,,,,,,,,,,,,,
2019,04,14,09,36,00,204.7,,,,,,,,,,,,,,
2019,04,14,09,37,00,198.8,,,,,,,,,,,,,,
2019,04,14,09,38,00,190.5,,,,,,,,,,,,,,
2019,04,14,09,39,00,192.8,,,,,,,,,,,,,,
2019,04,14,09,40,00,195.1,,,,,,,,,,,,,,
2019,04,14,09,41,00,200.3,,,,,,,,,,,,,,
2019,04,14,09,42,00,209.8,,,,,,,,,,,,,,
2019,04,14,09,43,00,206.0,,,,,,,,,,,,,,
2019,04,14,09,44,00,197.5,,,,,,,,,,,,,,
2019,04,14,09,45,00,197.9,,,,,,,,,,,,,,